Location: Kalispell
(48.1967°N, 114.3128°W)
Time: 19:54:09
(UTC-07:00)

Amateur Radio Satellites - All Passes

Search period start: 25 November 2014 19:24
Search period end: 26 November 2014 19:24
Location: Kalispell, 48.1967°N, 114.3128°W

Satellite Date Start Highest point End Downlink Frequencies (MHz)
Time Altitude Azimuth
STRAND 1 25 Nov 19:33:30 19:38:37 67° 103° (ESE) 19:43:41 437.568
SEEDS 25 Nov 19:37:52 19:40:50 19° 62° (ENE) 19:43:48 437.485
DOVE 4 25 Nov 19:42:00 19:44:26 15° 60° (ENE) 19:46:49 437.250
GONETS M04 25 Nov 19:43:48 19:52:42 76° 78° (ENE) 20:01:29
AAUSAT CUBESAT 2 25 Nov 19:55:06 19:58:15 21° 63° (ENE) 20:01:25 437.432
AIST 1 25 Nov 19:56:55 20:01:08 47° 93° (E) 20:05:24
DELFI C3 25 Nov 20:03:31 20:05:12 12° 58° (ENE) 20:06:54 145.870
CANX-2 25 Nov 20:04:17 20:08:14 40° 69° (ENE) 20:12:12 2200.000
DX 1 25 Nov 20:04:25 20:07:04 16° 59° (ENE) 20:09:42 434.975-435.025
BEESAT 3 25 Nov 20:07:20 20:10:21 20° 113° (ESE) 20:13:24 437.485
COMPASS 1 25 Nov 20:09:31 20:13:13 32° 67° (ENE) 20:16:57 437.405
CINEMA 3 25 Nov 20:19:15 20:22:22 20° 63° (ENE) 20:25:26 145.822/145.860
GOMX 1 25 Nov 20:20:24 20:24:49 41° 70° (ENE) 20:28:58 467.674
BEESAT 2 25 Nov 20:22:05 20:25:28 25° 115° (ESE) 20:28:54 435.950
PRISM 25 Nov 20:28:44 20:31:07 15° 301° (WNW) 20:33:30 437.425
ZACube-1 25 Nov 20:33:12 20:35:18 14° 59° (ENE) 20:37:24 437.345
VELOX 1 25 Nov 20:34:29 20:35:51 11° 55° (NE) 20:37:12 145.980
CUTE 1.7 & AOD 2 25 Nov 20:38:40 20:42:53 83° 75° (ENE) 20:47:09 437.475
PCSat 25 Nov 20:47:01 20:52:26 90° 126° (SE) 20:57:55 145.827
BRITE-PL 25 Nov 20:47:06 20:52:05 84° 256° (WSW) 20:56:42 437.365/2234.400
CUBESAT XI-V 25 Nov 20:49:25 20:53:09 24° 297° (WNW) 20:56:51 437.345
HO-68 25 Nov 20:51:21 20:58:31 70° 255° (WSW) 21:05:44 435.675
AIST 2 25 Nov 20:55:05 20:58:42 28° 116° (ESE) 21:02:22 435.215
AISAT 25 Nov 20:58:33 21:01:39 19° 60° (ENE) 21:04:45 437.250
UKube-1 25 Nov 21:03:14 21:07:27 51° 70° (ENE) 21:11:42 .
FUNcube-1 25 Nov 21:06:37 21:10:09 27° 66° (ENE) 21:13:40 145.935
SEEDS 25 Nov 21:12:15 21:16:20 50° 261° (W) 21:20:28 437.485
STRAND 1 25 Nov 21:13:37 21:17:20 21° 302° (WNW) 21:21:01 437.568
Oscar 11 25 Nov 21:14:39 21:18:56 71° 74° (ENE) 21:23:15 145.826/435.025
CUBEBUG 1 25 Nov 21:14:48 21:15:46 11° 55° (NE) 21:16:44 437.445
DOVE 4 25 Nov 21:17:11 21:21:45 75° 257° (WSW) 21:26:06 437.250
AAUSAT CUBESAT 2 25 Nov 21:29:43 21:33:41 43° 262° (W) 21:37:42 437.432
RS-15 25 Nov 21:29:49 21:39:29 34° 1° (N) 21:49:23 29.354- 29.394
CUBEBUG 2 25 Nov 21:30:42 21:34:54 62° 73° (ENE) 21:39:02 437.445
UWE-3 25 Nov 21:31:28 21:35:35 55° 72° (ENE) 21:39:41 435.000/436.395/437.385
AIST 1 25 Nov 21:35:49 21:39:05 20° 293° (WNW) 21:42:23
DELFI C3 25 Nov 21:35:50 21:39:55 82° 256° (WSW) 21:44:02 145.870
DX 1 25 Nov 21:38:26 21:42:48 70° 257° (WSW) 21:47:12 434.975-435.025
CANX-2 25 Nov 21:41:02 21:44:21 22° 267° (W) 21:47:41 2200.000
GONETS M04 25 Nov 21:41:37 21:48:39 28° 281° (W) 21:55:39
50 SAT 25 Nov 21:42:34 21:46:10 32° 68° (ENE) 21:49:47 437.505
BEESAT 3 25 Nov 21:44:10 21:48:14 55° 312° (NW) 21:52:22 437.485
COMPASS 1 25 Nov 21:45:24 21:48:59 27° 265° (W) 21:52:36 437.405
HUMSAT D 25 Nov 21:51:55 21:55:53 48° 71° (ENE) 21:59:52 437.325/437.525
CINEMA 3 25 Nov 21:55:05 21:59:19 49° 260° (W) 22:03:27 145.822/145.860
GOMX 1 25 Nov 21:59:14 22:03:05 24° 266° (W) 22:06:46 467.674
BEESAT 2 25 Nov 21:59:33 22:03:33 45° 315° (NW) 22:07:37 435.950
ESTCUBE 1 25 Nov 22:05:36 22:09:37 31° 66° (ENE) 22:13:39 437.505/2401.250
ZACube-1 25 Nov 22:06:58 22:11:10 74° 257° (WSW) 22:15:21 437.345
VELOX 1 25 Nov 22:07:12 22:11:40 76° 74° (ENE) 22:16:09 145.980
CUTE 1.7 & AOD 2 25 Nov 22:18:19 22:19:26 11° 273° (W) 22:20:34 437.475
DUCHIFAT 1 25 Nov 22:19:32 22:20:33 11° 87° (E) 22:21:34 145.980
TISAT 1 25 Nov 22:28:37 22:31:05 15° 59° (ENE) 22:33:34 437.305
BRITE-PL 25 Nov 22:29:55 22:31:12 11° 273° (W) 22:32:28 437.365/2234.400
PCSat 25 Nov 22:32:19 22:36:36 23° 325° (NW) 22:40:54 145.827
AIST 2 25 Nov 22:33:06 22:37:11 43° 316° (NW) 22:41:19 435.215
AISAT 25 Nov 22:33:27 22:37:53 59° 259° (WSW) 22:42:20 437.250
NANOSAT C BR1 25 Nov 22:37:25 22:40:12 17° 91° (E) 22:42:59 145.865
SPROUT 25 Nov 22:37:36 22:40:18 16° 60° (ENE) 22:43:00 437.525
UKube-1 25 Nov 22:40:51 22:43:56 19° 268° (W) 22:47:01 .
FUNcube-1 25 Nov 22:42:40 22:46:27 32° 264° (W) 22:50:13 145.935
TIGRISAT 25 Nov 22:43:17 22:47:06 28° 95° (E) 22:50:58 435.000
HO-68 25 Nov 22:44:01 22:47:32 14° 276° (W) 22:51:04 435.675
CUBEBUG 1 25 Nov 22:46:55 22:51:21 73° 74° (ENE) 22:55:48 437.445
QB50P1 25 Nov 22:46:56 22:50:12 21° 93° (E) 22:53:26 145.935-145.965
DANDE 25 Nov 22:49:59 22:52:05 13° 67° (ENE) 22:54:25 436.750
Oscar 11 25 Nov 22:53:30 22:55:37 13° 272° (W) 22:57:44 145.826/435.025
UNISAT 6 25 Nov 22:56:38 23:00:47 38° 98° (E) 23:05:00 437.425
BUGSAT 1 25 Nov 22:58:30 23:01:45 22° 93° (E) 23:04:57 437.445
CUBEBUG 2 25 Nov 23:09:43 23:12:02 14° 270° (W) 23:14:20 437.445
UWE-3 25 Nov 23:09:53 23:12:30 16° 270° (W) 23:15:07 435.000/436.395/437.385
POPSAT HIP 1 25 Nov 23:11:15 23:15:11 36° 97° (E) 23:19:05 437.405
50 SAT 25 Nov 23:18:11 23:21:33 25° 266° (W) 23:24:55 437.505
SWISSCUBE 25 Nov 23:22:35 23:24:32 12° 54° (NE) 23:26:29 437.505
BEESAT 3 25 Nov 23:25:02 23:27:22 14° 334° (NNW) 23:29:43 437.485
ANTELSAT 25 Nov 23:25:13 23:29:39 74° 103° (ESE) 23:34:11 437.575/2403.000
HUMSAT D 25 Nov 23:29:10 23:31:59 18° 269° (W) 23:34:49 437.325/437.525
BEESAT 2 25 Nov 23:40:52 23:42:53 13° 337° (NNW) 23:44:55 435.950
ESTCUBE 1 25 Nov 23:42:21 23:46:27 33° 264° (W) 23:50:36 437.505/2401.250
RS-15 25 Nov 23:44:18 23:55:03 51° 34° (NE) 00:06:11 29.354- 29.394
POLYITAN 1 25 Nov 23:44:34 23:48:49 82° 104° (ESE) 23:53:03 437.675
QB50P2 25 Nov 23:46:38 23:50:54 86° 105° (ESE) 23:55:08 145.880/145.840
VELOX 1 25 Nov 23:46:39 23:48:49 13° 272° (W) 23:50:58 145.980
BEESAT 25 Nov 23:51:52 23:55:19 20° 60° (ENE) 23:58:47 436.000
DUCHIFAT 1 25 Nov 23:52:48 23:57:02 84° 285° (WNW) 00:01:15 145.980
TISAT 1 26 Nov 00:02:11 00:06:26 70° 258° (WSW) 00:10:42 437.305
AUBIESAT-1 26 Nov 00:02:24 00:06:20 41° 62° (ENE) 00:10:37 437.475
CUSAT 1 26 Nov 00:06:04 00:10:24 73° 78° (ENE) 00:16:17 437.405
M-CUBED/EXP-1 PRIME 26 Nov 00:07:27 00:11:28 49° 64° (ENE) 00:15:52 437.505
SPROUT 26 Nov 00:11:38 00:15:56 65° 258° (WSW) 00:20:15 437.525
NANOSAT C BR1 26 Nov 00:12:19 00:16:26 52° 289° (WNW) 00:20:31 145.865
AIST 2 26 Nov 00:14:50 00:16:55 13° 338° (NNW) 00:19:00 435.215
TIGRISAT 26 Nov 00:19:55 00:23:54 35° 292° (WNW) 00:27:57 435.000
PCSat 26 Nov 00:20:51 00:22:09 11° 351° (N) 00:23:27 145.827
QB50P1 26 Nov 00:22:18 00:26:17 42° 291° (WNW) 00:30:16 145.935-145.965
CUBEBUG 1 26 Nov 00:25:57 00:28:14 14° 271° (W) 00:30:32 437.445
DANDE 26 Nov 00:31:32 00:35:43 80° 260° (W) 00:41:27 436.750
MaSat-1 26 Nov 00:31:38 00:33:54 52° 59° (ENE) 00:36:12 437.345
BUGSAT 1 26 Nov 00:33:36 00:37:24 37° 292° (WNW) 00:41:09 437.445
UNISAT 6 26 Nov 00:33:46 00:37:27 26° 295° (WNW) 00:41:11 437.425
ISS 26 Nov 00:40:29 00:43:40 48° 149° (SSE) 00:46:52 145.825
ITUPSAT 1 26 Nov 00:45:55 00:50:36 55° 70° (ENE) 00:55:20 437.325
POPSAT HIP 1 26 Nov 00:47:30 00:50:58 25° 295° (WNW) 00:54:25 437.405
SWISSCUBE 26 Nov 00:56:47 01:01:35 75° 73° (ENE) 01:06:25 437.505
ANTELSAT 26 Nov 01:03:23 01:05:58 16° 301° (WNW) 01:08:35 437.575/2403.000
YUBILEINY 26 Nov 01:07:32 01:12:12 16° 72° (ENE) 01:16:51 435.215
STARS 26 Nov 01:16:16 01:19:22 19° 61° (ENE) 01:22:28 437.465
Oscar 19 26 Nov 01:17:17 01:21:20 23° 92° (E) 01:25:23 437.125/150
POLYITAN 1 26 Nov 01:22:14 01:24:11 13° 302° (WNW) 01:26:07 437.675
QB50P2 26 Nov 01:24:25 01:26:12 13° 303° (WNW) 01:27:59 145.880/145.840
BEESAT 26 Nov 01:27:59 01:32:44 62° 258° (WSW) 01:37:31 436.000
DUCHIFAT 1 26 Nov 01:31:00 01:32:13 11° 304° (WNW) 01:33:26 145.980
AUBIESAT-1 26 Nov 01:38:06 01:41:31 25° 262° (W) 01:45:12 437.475
M-CUBED/EXP-1 PRIME 26 Nov 01:43:44 01:46:51 20° 264° (W) 01:50:11 437.505
CUSAT 1 26 Nov 01:50:41 01:53:24 15° 269° (W) 01:56:31 437.405
KKS-1 26 Nov 01:55:15 01:59:38 60° 72° (ENE) 02:04:02 437.445
RS-15 26 Nov 01:57:01 02:08:02 68° 240° (WSW) 02:19:33 29.354- 29.394
PCSat 26 Nov 02:05:45 02:08:10 13° 18° (NNE) 02:10:35 145.827
ITAMSAT 1 26 Nov 02:10:07 02:14:28 27° 94° (E) 02:18:47 435.822/435.867
ISS 26 Nov 02:17:06 02:20:20 52° 348° (NNW) 02:23:35 145.825
ITUPSAT 1 26 Nov 02:25:16 02:28:51 21° 269° (W) 02:32:27 437.325
SWISSCUBE 26 Nov 02:37:16 02:40:01 15° 271° (W) 02:42:46 437.505
Gurwin Techsat 1B 26 Nov 02:42:00 02:46:43 31° 95° (E) 02:51:23 435.225
BEESAT 3 26 Nov 02:45:42 02:47:36 13° 23° (NNE) 02:49:31 437.485
STARS 26 Nov 02:51:10 02:55:29 56° 259° (W) 02:59:50 437.465
Oscar 19 26 Nov 02:55:58 03:01:01 55° 290° (WNW) 03:06:03 437.125/150
YUBILEINY 26 Nov 02:58:35 03:07:18 70° 94° (E) 03:16:00 435.215
HORYU 2 26 Nov 03:00:49 03:04:04 19° 92° (E) 03:07:18 437.375
BEESAT 2 26 Nov 03:00:57 03:03:16 14° 25° (NNE) 03:05:35 435.950
MOZHAYETS 4 26 Nov 03:02:57 03:04:42 12° 55° (NE) 03:06:28
KKS-1 26 Nov 03:33:49 03:36:41 17° 270° (W) 03:39:34 437.445
AIST 2 26 Nov 03:35:23 03:38:00 16° 27° (NNE) 03:40:37 435.215
PCSat 26 Nov 03:48:22 03:53:19 34° 42° (NE) 03:58:13 145.827
ITAMSAT 1 26 Nov 03:49:13 03:54:11 47° 292° (WNW) 03:59:07 435.822/435.867
ISS 26 Nov 03:54:06 03:57:19 47° 8° (N) 04:00:32 145.825
SO-50 26 Nov 03:56:11 04:00:15 33° 117° (ESE) 04:04:26 436.795
RS-15 26 Nov 04:11:37 04:18:14 18° 263° (W) 04:25:02 29.354- 29.394
PRISM 26 Nov 04:13:52 04:15:25 12° 56° (NE) 04:16:58 437.425
AO-7 26 Nov 04:14:02 04:21:41 38° 97° (E) 04:29:17 29.400- 29.500
Gurwin Techsat 1B 26 Nov 04:21:48 04:26:48 42° 293° (WNW) 04:31:46 435.225
BEESAT 3 26 Nov 04:22:52 04:26:54 43° 45° (NE) 04:30:54 437.485
JAS-2 26 Nov 04:25:18 04:29:38 17° 82° (E) 04:33:42 435.910
MOZHAYETS 4 26 Nov 04:36:34 04:41:09 79° 75° (ENE) 04:45:49
HORYU 2 26 Nov 04:36:41 04:41:03 52° 290° (WNW) 04:45:25 437.375
BEESAT 2 26 Nov 04:38:20 04:42:30 53° 47° (NE) 04:46:36 435.950
Oscar 19 26 Nov 04:38:59 04:39:17 10° 310° (NW) 04:39:34 437.125/150
CUBESAT XI-V 26 Nov 04:45:07 04:46:24 11° 54° (NE) 04:47:40 437.345
YUBILEINY 26 Nov 04:57:14 05:04:52 32° 297° (WNW) 05:12:31 435.215
O/OREOS (USA 219) 26 Nov 05:12:32 05:13:30 11° 97° (E) 05:14:29 437.305
AIST 2 26 Nov 05:13:14 05:17:32 59° 48° (NE) 05:21:45 435.215
STRAND 1 26 Nov 05:15:31 05:19:27 23° 60° (ENE) 05:23:23 437.568
ISS 26 Nov 05:30:48 05:34:04 63° 208° (SSW) 05:37:20 145.825
PCSat 26 Nov 05:31:42 05:36:58 52° 243° (WSW) 05:42:12 145.827
CUTE-I 26 Nov 05:32:53 05:34:53 12° 86° (E) 05:36:52 437.470
SO-50 26 Nov 05:36:22 05:40:43 42° 318° (NW) 05:45:13 436.795
PRISM 26 Nov 05:46:04 05:50:18 87° 75° (ENE) 05:54:34 437.425
AIST 1 26 Nov 06:01:11 06:04:20 19° 67° (ENE) 06:07:26
BEESAT 3 26 Nov 06:01:26 06:04:58 27° 244° (WSW) 06:08:29 437.485
AO-7 26 Nov 06:06:41 06:14:51 60° 297° (WNW) 06:23:00 29.400- 29.500
JAS-2 26 Nov 06:08:39 06:15:59 83° 104° (ESE) 06:22:24 435.910
MOZHAYETS 4 26 Nov 06:16:47 06:18:59 13° 273° (W) 06:21:13
BEESAT 2 26 Nov 06:17:16 06:20:29 21° 246° (WSW) 06:23:40 435.950
CUBESAT XI-V 26 Nov 06:18:17 06:22:58 69° 73° (ENE) 06:27:42 437.345
Cubesat XI-IV 26 Nov 06:29:18 06:34:15 37° 97° (E) 06:39:09 437.490
O/OREOS (USA 219) 26 Nov 06:47:39 06:52:09 88° 113° (ESE) 06:56:39 437.305
AIST 2 26 Nov 06:52:39 06:55:47 20° 247° (WSW) 06:58:53 435.215
STRAND 1 26 Nov 06:53:09 06:58:15 61° 258° (WSW) 07:03:21 437.568
GONETS M04 26 Nov 06:56:55 07:02:12 18° 73° (ENE) 07:07:29
ISS 26 Nov 07:08:46 07:10:11 12° 225° (SW) 07:11:35 145.825
CUTE-I 26 Nov 07:10:28 07:15:49 80° 104° (ESE) 07:21:08 437.470
SO-50 26 Nov 07:19:54 07:22:32 15° 341° (NNW) 07:25:11 436.795
PRISM 26 Nov 07:25:43 07:26:29 10° 273° (W) 07:27:15 437.425
AIST 1 26 Nov 07:38:04 07:42:19 50° 266° (W) 07:46:31
JAS-2 26 Nov 07:54:32 08:00:07 25° 307° (NW) 08:05:16 435.910
CUBESAT XI-V 26 Nov 07:58:02 08:00:55 16° 271° (W) 08:03:48 437.345
AO-7 26 Nov 08:00:47 08:06:02 19° 320° (NW) 08:11:17 29.400- 29.500
Cubesat XI-IV 26 Nov 08:09:30 08:14:20 36° 296° (WNW) 08:19:07 437.490
HO-68 26 Nov 08:16:15 08:21:08 19° 88° (E) 08:25:59 435.675
CUTE 1.7 & AOD 2 26 Nov 08:22:45 08:24:16 12° 87° (E) 08:25:46 437.475
O/OREOS (USA 219) 26 Nov 08:29:29 08:32:13 16° 316° (NW) 08:34:57 437.305
GONETS M04 26 Nov 08:48:41 08:57:27 76° 95° (E) 09:06:18
BRITE-PL 26 Nov 08:49:03 08:52:07 20° 92° (E) 08:55:11 437.365/2234.400
CUTE-I 26 Nov 08:51:42 08:55:17 19° 304° (WNW) 08:58:51 437.470
SEEDS 26 Nov 08:53:59 08:57:16 21° 92° (E) 09:00:33 437.485
ANTELSAT 26 Nov 08:54:16 08:56:19 13° 58° (ENE) 08:58:22 437.575/2403.000
Oscar 11 26 Nov 09:01:50 09:02:06 10° 86° (E) 09:02:22 145.826/435.025
SO-50 26 Nov 09:03:35 09:05:08 11° 6° (N) 09:06:42 436.795
POLYITAN 1 26 Nov 09:08:20 09:10:20 13° 58° (ENE) 09:12:21 437.675
QB50P2 26 Nov 09:10:03 09:12:12 14° 58° (ENE) 09:14:21 145.880/145.840
AAUSAT CUBESAT 2 26 Nov 09:10:06 09:13:32 23° 93° (E) 09:16:56 437.432
DOVE 4 26 Nov 09:13:21 09:16:26 20° 92° (E) 09:19:34 437.250
DELFI C3 26 Nov 09:15:16 09:16:46 12° 88° (E) 09:18:14 145.870
DUCHIFAT 1 26 Nov 09:15:33 09:17:59 15° 59° (ENE) 09:20:25 145.980
CANX-2 26 Nov 09:21:53 09:26:04 49° 99° (E) 09:30:15 2200.000
DX 1 26 Nov 09:24:39 09:27:15 15° 90° (E) 09:29:50 434.975-435.025
COMPASS 1 26 Nov 09:25:16 09:29:14 36° 97° (E) 09:33:10 437.405
NANOSAT C BR1 26 Nov 09:34:00 09:37:17 22° 63° (ENE) 09:40:34 145.865
QB50P1 26 Nov 09:43:35 09:47:10 27° 65° (ENE) 09:50:45 145.935-145.965
TIGRISAT 26 Nov 09:45:59 09:49:54 38° 68° (ENE) 09:53:51 435.000
CINEMA 3 26 Nov 09:46:28 09:50:05 27° 95° (E) 09:53:45 145.822/145.860
BUGSAT 1 26 Nov 09:52:20 09:55:56 28° 66° (ENE) 09:59:32 437.445
ZACube-1 26 Nov 09:53:13 09:55:52 16° 90° (E) 09:58:33 437.345
GOMX 1 26 Nov 09:56:13 10:00:23 71° 102° (ESE) 10:04:35 467.674
CUTE 1.7 & AOD 2 26 Nov 09:56:28 10:00:46 81° 285° (WNW) 10:05:04 437.475
VELOX 1 26 Nov 09:57:02 09:58:20 11° 87° (E) 09:59:38 145.980
UNISAT 6 26 Nov 09:59:35 10:03:44 52° 71° (ENE) 10:07:54 437.425
HO-68 26 Nov 10:02:35 10:09:50 89° 108° (ESE) 10:17:00 435.675
POPSAT HIP 1 26 Nov 10:07:51 10:11:55 45° 70° (ENE) 10:15:59 437.405
AISAT 26 Nov 10:21:53 10:25:12 20° 92° (E) 10:28:30 437.250
UKube-1 26 Nov 10:23:36 10:27:54 57° 101° (ESE) 10:32:09 .
BRITE-PL 26 Nov 10:26:58 10:30:54 41° 290° (WNW) 10:34:49 437.365/2234.400
FUNcube-1 26 Nov 10:27:17 10:31:09 34° 97° (E) 10:35:04 145.935
ANTELSAT 26 Nov 10:28:16 10:32:32 81° 256° (WSW) 10:36:51 437.575/2403.000
SEEDS 26 Nov 10:29:15 10:33:18 43° 290° (WNW) 10:37:21 437.485
Oscar 11 26 Nov 10:34:34 10:38:57 88° 104° (ESE) 10:43:19 145.826/435.025
CUBEBUG 1 26 Nov 10:35:36 10:36:15 10° 86° (E) 10:36:53 437.445
POLYITAN 1 26 Nov 10:41:27 10:45:43 82° 256° (WSW) 10:49:59 437.675
QB50P2 26 Nov 10:43:18 10:47:34 78° 257° (WSW) 10:51:51 145.880/145.840
SO-50 26 Nov 10:43:43 10:47:29 22° 30° (NNE) 10:51:16 436.795
AAUSAT CUBESAT 2 26 Nov 10:45:24 10:49:21 38° 291° (WNW) 10:53:16 437.432
GONETS M04 26 Nov 10:47:47 10:55:14 30° 299° (WNW) 11:02:45
DELFI C3 26 Nov 10:48:27 10:52:36 76° 285° (WNW) 10:56:44 145.870
DUCHIFAT 1 26 Nov 10:49:07 10:53:22 70° 258° (WSW) 10:57:37 145.980
DOVE 4 26 Nov 10:50:30 10:54:27 43° 290° (WNW) 10:58:28 437.250
UWE-3 26 Nov 10:54:10 10:58:24 76° 102° (ESE) 11:02:43 435.000/436.395/437.385
CUBEBUG 2 26 Nov 10:54:46 10:59:01 87° 104° (ESE) 11:03:21 437.445
50 SAT 26 Nov 10:54:56 10:58:40 34° 97° (E) 11:02:23 437.505
CANX-2 26 Nov 10:58:34 11:01:43 20° 297° (WNW) 11:04:52 2200.000
DX 1 26 Nov 10:59:36 11:03:55 62° 288° (WNW) 11:08:12 434.975-435.025
COMPASS 1 26 Nov 11:01:20 11:04:50 25° 295° (WNW) 11:08:19 437.405
HUMSAT D 26 Nov 11:08:35 11:12:42 57° 101° (E) 11:16:50 437.325/437.525
NANOSAT C BR1 26 Nov 11:08:53 11:12:56 43° 261° (W) 11:17:01 145.865
YUBILEINY 26 Nov 11:11:14 11:12:38 10° 41° (NE) 11:14:03 435.215
QB50P1 26 Nov 11:19:04 11:22:58 34° 263° (W) 11:26:52 145.935-145.965
TIGRISAT 26 Nov 11:23:22 11:26:49 24° 266° (W) 11:30:16 435.000
CINEMA 3 26 Nov 11:23:35 11:27:21 32° 292° (WNW) 11:31:11 145.822/145.860
BUGSAT 1 26 Nov 11:27:30 11:31:21 33° 263° (W) 11:35:13 437.445
ZACube-1 26 Nov 11:28:28 11:32:37 57° 288° (WNW) 11:36:49 437.345
VELOX 1 26 Nov 11:31:07 11:35:35 87° 285° (WNW) 11:40:00 145.980
ESTCUBE 1 26 Nov 11:31:16 11:35:34 40° 98° (E) 11:39:49 437.505/2401.250
CUTE 1.7 & AOD 2 26 Nov 11:34:49 11:35:59 11° 303° (WNW) 11:37:10 437.475
GOMX 1 26 Nov 11:35:54 11:38:02 14° 301° (WNW) 11:40:11 467.674
UNISAT 6 26 Nov 11:38:02 11:40:53 17° 269° (W) 11:43:45 437.425
POPSAT HIP 1 26 Nov 11:44:54 11:48:03 20° 268° (W) 11:51:13 437.405
TISAT 1 26 Nov 11:45:10 11:47:34 15° 90° (E) 11:49:57 437.305
HO-68 26 Nov 11:51:17 11:56:43 24° 309° (NW) 12:02:08 435.675
SPROUT 26 Nov 11:55:58 11:58:51 17° 91° (E) 12:01:42 437.525
ITAMSAT 1 26 Nov 11:56:55 11:58:06 11° 50° (NE) 11:59:17 435.822/435.867
AISAT 26 Nov 11:57:50 12:02:06 47° 290° (WNW) 12:06:20 437.250
UKube-1 26 Nov 12:00:41 12:03:41 19° 300° (WNW) 12:06:40 .
FUNcube-1 26 Nov 12:03:53 12:07:26 27° 294° (WNW) 12:11:01 145.935
CUBEBUG 1 26 Nov 12:08:54 12:13:19 89° 104° (ESE) 12:17:40 437.445
Oscar 11 26 Nov 12:12:33 12:14:29 13° 302° (WNW) 12:16:26 145.826/435.025
SO-50 26 Nov 12:23:50 12:28:44 85° 51° (NE) 12:33:39 436.795
50 SAT 26 Nov 12:30:32 12:33:52 25° 295° (WNW) 12:37:13 437.505
Gurwin Techsat 1B 26 Nov 12:30:34 12:32:49 13° 52° (NE) 12:35:03 435.225
UWE-3 26 Nov 12:32:17 12:34:27 14° 301° (WNW) 12:36:38 435.000/436.395/437.385
CUBEBUG 2 26 Nov 12:33:26 12:35:08 12° 302° (WNW) 12:36:51 437.445
Oscar 19 26 Nov 12:37:30 12:42:22 46° 68° (ENE) 12:47:16 437.125/150
HUMSAT D 26 Nov 12:45:26 12:48:08 17° 299° (WNW) 12:50:51 437.325/437.525
ITUPSAT 1 26 Nov 12:45:46 12:46:55 11° 86° (E) 12:48:03 437.325
SWISSCUBE 26 Nov 12:55:09 12:57:55 15° 89° (E) 13:00:39 437.505
YUBILEINY 26 Nov 13:04:22 13:12:34 42° 68° (ENE) 13:20:40 435.215
ESTCUBE 1 26 Nov 13:08:29 13:12:17 26° 296° (WNW) 13:16:02 437.505/2401.250
VELOX 1 26 Nov 13:09:37 13:11:29 13° 304° (NW) 13:13:21 145.980
AUBIESAT-1 26 Nov 13:16:44 13:20:36 23° 97° (E) 13:24:24 437.475
TISAT 1 26 Nov 13:19:40 13:23:50 61° 288° (WNW) 13:27:58 437.305
M-CUBED/EXP-1 PRIME 26 Nov 13:22:06 13:26:19 27° 99° (E) 13:30:27 437.505
CUSAT 1 26 Nov 13:24:31 13:27:05 56° 99° (E) 13:29:42 437.405
BEESAT 26 Nov 13:25:11 13:29:13 26° 94° (E) 13:33:14 436.000
AO-7 26 Nov 13:27:52 13:33:31 21° 42° (NE) 13:39:11 29.400- 29.500
SPROUT 26 Nov 13:31:05 13:35:16 53° 289° (WNW) 13:39:26 437.525
ITAMSAT 1 26 Nov 13:31:26 13:36:32 58° 70° (ENE) 13:41:40 435.822/435.867
CUBEBUG 1 26 Nov 13:47:07 13:49:02 13° 303° (WNW) 13:50:56 437.445
DANDE 26 Nov 13:52:43 13:55:23 62° 283° (WNW) 13:57:59 436.750
HORYU 2 26 Nov 14:02:55 14:06:41 28° 65° (ENE) 14:10:29 437.375
SO-50 26 Nov 14:05:42 14:08:41 16° 250° (WSW) 14:11:40 436.795
Gurwin Techsat 1B 26 Nov 14:06:34 14:11:50 68° 72° (ENE) 14:17:08 435.225
Oscar 19 26 Nov 14:17:39 14:21:56 27° 267° (W) 14:26:14 437.125/150
ITUPSAT 1 26 Nov 14:20:44 14:25:36 82° 104° (ESE) 14:30:24 437.325
RS-15 26 Nov 14:21:31 14:25:18 12° 93° (E) 14:29:04 29.354- 29.394
SWISSCUBE 26 Nov 14:31:31 14:36:20 75° 287° (WNW) 14:41:07 437.505
STARS 26 Nov 14:38:19 14:41:39 21° 93° (E) 14:44:59 437.465
JAS-2 26 Nov 14:41:39 14:46:15 17° 47° (NE) 14:50:50 435.910
AUBIESAT-1 26 Nov 14:51:03 14:55:52 56° 295° (WNW) 15:00:37 437.475
M-CUBED/EXP-1 PRIME 26 Nov 14:56:46 15:01:30 47° 297° (WNW) 15:06:11 437.505
YUBILEINY 26 Nov 15:01:16 15:09:35 52° 271° (W) 15:17:50 435.215
BEESAT 26 Nov 15:02:42 15:07:14 43° 292° (WNW) 15:11:44 436.000
ITAMSAT 1 26 Nov 15:12:24 15:16:24 22° 268° (W) 15:20:26 435.822/435.867
O/OREOS (USA 219) 26 Nov 15:14:56 15:19:11 41° 57° (ENE) 15:23:25 437.305
PHONESAT 2.4 26 Nov 15:16:10 15:18:01 13° 157° (SSE) 15:19:52 2401.200-2431.200
AO-7 26 Nov 15:16:43 15:24:54 68° 65° (ENE) 15:33:09 29.400- 29.500
KKS-1 26 Nov 15:19:28 15:23:56 75° 103° (ESE) 15:28:22 437.445
VERMONT LUNAR 26 Nov 15:24:08 15:26:30 17° 162° (SSE) 15:28:52 437.305
MaSat-1 26 Nov 15:37:06 15:39:55 53° 118° (ESE) 15:42:31 437.345
HORYU 2 26 Nov 15:39:12 15:43:16 35° 263° (W) 15:47:23 437.375
Gurwin Techsat 1B 26 Nov 15:48:34 15:52:18 19° 270° (W) 15:56:04 435.225
ITUPSAT 1 26 Nov 15:59:59 16:02:53 16° 303° (WNW) 16:05:45 437.325
SWISSCUBE 26 Nov 16:11:30 16:13:23 12° 306° (NW) 16:15:15 437.505
STARS 26 Nov 16:14:10 16:18:23 46° 290° (WNW) 16:22:35 437.465
Cubesat XI-IV 26 Nov 16:17:49 16:20:58 16° 54° (NE) 16:24:08 437.490
JAS-2 26 Nov 16:22:13 16:29:46 59° 68° (ENE) 16:37:26 435.910
RS-15 26 Nov 16:24:23 16:34:55 57° 116° (ESE) 16:45:29 29.354- 29.394
AUBIESAT-1 26 Nov 16:28:23 16:29:53 11° 314° (NW) 16:31:22 437.475
MOZHAYETS 4 26 Nov 16:29:35 16:32:19 15° 88° (E) 16:35:02
PHONESAT 2.4 26 Nov 16:53:03 16:56:05 24° 174° (S) 16:59:07 2401.200-2431.200
O/OREOS (USA 219) 26 Nov 16:54:43 16:58:24 26° 256° (WSW) 17:02:05 437.305
CUTE-I 26 Nov 16:57:09 17:01:46 30° 62° (ENE) 17:06:23 437.470
KKS-1 26 Nov 16:57:29 17:00:02 15° 302° (WNW) 17:02:35 437.445
GONETS M04 26 Nov 17:00:16 17:03:18 12° 43° (NE) 17:06:20
VERMONT LUNAR 26 Nov 17:01:20 17:04:19 24° 179° (S) 17:07:19 437.305
YUBILEINY 26 Nov 17:04:01 17:04:07 10° 294° (WNW) 17:04:13 435.215
AO-7 26 Nov 17:11:04 17:18:16 32° 266° (W) 17:25:33 29.400- 29.500
Cubesat XI-IV 26 Nov 17:54:56 18:00:18 85° 74° (ENE) 18:05:42 437.490
MOZHAYETS 4 26 Nov 18:05:23 18:10:03 70° 287° (WNW) 18:14:41
JAS-2 26 Nov 18:08:03 18:15:04 37° 267° (W) 18:22:14 435.910
CUBESAT XI-V 26 Nov 18:13:17 18:15:38 14° 87° (E) 18:17:57 437.345
PHONESAT 2.4 26 Nov 18:31:23 18:34:16 21° 191° (S) 18:37:09 2401.200-2431.200
CUTE-I 26 Nov 18:36:31 18:41:39 46° 261° (W) 18:46:49 437.470
RS-15 26 Nov 18:36:44 18:47:24 56° 322° (NW) 18:58:16 29.354- 29.394
PCSat 26 Nov 18:37:52 18:39:26 11° 101° (ESE) 18:41:00 145.827
VERMONT LUNAR 26 Nov 18:39:40 18:42:09 18° 196° (SSW) 18:44:39 437.305
HO-68 26 Nov 18:49:11 18:54:41 25° 52° (NE) 19:00:11 435.675
GONETS M04 26 Nov 18:54:34 19:03:03 47° 70° (ENE) 19:11:24
STRAND 1 26 Nov 19:00:13 19:04:53 35° 96° (E) 19:09:31 437.568
PRISM 26 Nov 19:01:20 19:05:37 89° 106° (ESE) 19:09:51 437.425
